Location: USNO
(38.9242°N, 77.0663°W)
Time: 12:33:08
(UTC-04:00)

Daily predictions for brighter satellites

Satellite Brightness Start Highest point End
(mag) Time Altitude Azimuth Time Altitude Azimuth Time Altitude Azimuth
Meteor 2-21 4.5 20:14:06 10° S 20:20:14 83° E 20:26:27 10° N
SL-16 R/B 3.4 20:17:13 10° SE 20:21:06 19° E 20:24:59 10° NE
ATLAS 2AS CENTAUR R/B 3.0 20:14:39 10° NNW 20:22:33 72° NE 20:29:46 10° SE
Cosmos 1408 4.0 20:21:25 10° NNE 20:24:20 22° ENE 20:27:15 10° SE
Cosmos 1470 Rocket 4.3 20:20:23 10° NNE 20:24:24 33° ENE 20:28:26 10° SE
NOSS 0 Rocket 3.9 20:19:00 10° SSW 20:25:08 71° ESE 20:31:18 10° NNE
NOSS 3 (A) 4.4 20:23:04 10° SW 20:25:48 85° WNW 20:28:47 10° NNE
HJ-1C 3.7 20:26:33 10° S 20:29:52 68° W 20:33:14 10° NNW
Cosmos 220 Rocket 3.9 20:26:43 10° NNW 20:31:03 73° ENE 20:35:16 10° SSE
Cosmos 2154 Rocket 4.2 20:27:04 10° S 20:33:19 81° W 20:39:35 10° N
Cosmos 2098 Rocket 4.2 20:31:54 10° SE 20:35:13 21° E 20:38:05 10° NE
Resurs 01 Rocket 2.1 20:35:53 10° SE 20:40:05 44° ENE 20:44:18 10° N
ERS-2 2.1 20:37:28 10° SSE 20:41:06 76° ENE 20:44:47 10° N
YAOGAN 6 2.8 20:38:02 10° SSE 20:41:33 54° ENE 20:45:08 10° N
Cosmos 1151 Rocket 3.1 20:37:44 10° S 20:41:52 53° E 20:46:02 10° NNE
Spot 2 Rocket 4.1 20:37:38 10° SE 20:42:18 38° ENE 20:46:59 10° N
Cosmos 1980 3.7 20:39:57 10° SSW 20:45:37 90° ESE 20:51:21 10° NNE
Cosmos 1666 Rocket 4.4 20:42:22 10° NNW 20:46:44 54° W 20:51:02 10° S
Thor Agena Rocket 3.6 20:42:47 10° NNE 20:48:05 84° ESE 20:53:22 10° SSW
Sich 1 4.2 20:45:09 10° NNW 20:49:13 43° W 20:53:15 10° SSW
Meteor 2-3 Rocket 3.8 20:44:24 10° N 20:50:02 87° W 20:55:43 10° S
Cosmos 1933 Rocket 3.6 20:48:27 10° N 20:52:46 57° E 20:57:01 10° SSE
NOSS 3-4 (A) 4.5 20:46:28 10° NNW 20:53:05 41° NE 20:58:48 16° ESE
NOSS 3-4 (C) 4.5 20:46:34 10° NNW 20:53:11 41° NE 20:58:53 16° ESE
Cosmos 1844 Rocket 4.3 20:48:13 10° NW 20:53:15 33° WSW 20:58:14 10° SSW
Cosmos 1455 3.1 20:50:32 10° SSW 20:54:16 53° W 20:58:04 10° N
SJ-6B 3.9 20:50:55 10° S 20:54:46 46° W 20:58:35 10° NNW
Cosmos 2218 Rocket 4.1 20:55:06 10° S 21:01:20 61° E 21:07:38 10° NNE
Cosmos 2341 Rocket 4.3 20:55:02 10° SSW 21:01:22 73° W 21:07:42 10° N
Cosmos 1869 3.4 20:57:45 10° S 21:01:40 53° E 21:05:36 10° NNE
Cosmos 1441 Rocket 4.3 21:02:08 21° ESE 21:02:52 23° E 21:05:50 10° NE
Cosmos 2333 Rocket 3.7 20:58:11 10° SW 21:03:30 40° WNW 21:08:49 10° N
Cosmos 2219 Rocket 4.1 21:00:45 10° WSW 21:05:50 33° WNW 21:10:54 10° N
Resurs 1-3 3.6 21:01:34 10° SSE 21:05:57 89° ENE 21:10:21 10° NNW
Cosmos 2366 rocket 4.0 21:02:26 10° S 21:08:33 63° E 21:14:45 10° NNE
ATLAS CENTAUR R/B 4.2 21:06:54 10° W 21:09:36 19° NW 21:12:24 10° N
ERS-1 Rocket 4.4 21:09:54 17° E 21:11:36 21° ENE 21:15:15 10° NNE
Cosmos 2237 Rocket 2.8 21:06:39 10° SW 21:12:11 59° WNW 21:17:46 10° NNE
Cosmos 1939 Rocket 3.2 21:09:04 10° S 21:12:54 62° W 21:16:48 10° NNW
Cosmos 1869 Rocket 4.5 21:11:55 10° NNE 21:15:46 30° ENE 21:16:54 26° ESE
SL-8 Rocket 4.1 21:09:33 10° S 21:15:51 85° W 21:22:10 10° N
USA 186 3.3 21:16:33 10° SSW 21:18:25 23° W 21:20:21 10° NW
Cosmos 407 Rocket 3.6 21:16:38 10° N 21:21:40 55° ENE 21:24:14 28° SE
Cosmos 2278 Rocket 2.7 21:18:25 10° NNW 21:24:00 59° WSW 21:29:00 13° S
Cosmos 1339 Rocket 4.4 21:18:24 10° N 21:24:30 67° E 21:28:57 19° SSE
NOAA 11 4.1 21:21:28 16° SSE 21:25:56 86° ENE 21:31:29 10° NNW
Lacrosse 5 4.0 21:29:16 10° NNW 21:32:26 16° NNE 21:35:36 10° ENE
SPOT 5 4.3 21:35:32 19° ENE 21:35:38 19° ENE 21:38:43 10° NNE
Cosmos 405 Rocket 2.7 21:35:29 47° SE 21:36:14 56° E 21:40:06 10° NNE
OAO 3 Copernicus 4.5 21:31:25 10° WSW 21:36:19 53° S 21:37:49 39° ESE
Cosmos 1825 3.2 21:33:27 10° NNW 21:37:04 44° W 21:39:48 16° SSW
ASTRO E2 3.9 21:33:52 10° WSW 21:37:01 27° S 21:37:01 27° S
USA 81 4.0 21:34:48 10° N 21:40:03 65° E 21:42:17 34° SSE
H-2A R/B 2.3 21:43:19 38° ESE 21:44:28 45° ENE 21:49:12 10° N
CZ-3B R/B 4.5 21:43:56 10° NW 21:44:31 20° NW 21:44:31 20° NW
Cosmos 676 Rocket 4.1 21:40:24 10° N 21:45:33 56° ENE 21:46:58 42° ESE
CZ-4C R/B 2.2 21:44:58 33° SSE 21:46:48 47° ESE 21:52:14 10° NE
MetOp-B 4.2 21:47:56 41° SE 21:49:35 59° ENE 21:54:52 10° N
Meteor 2-10 Rocket 4.2 21:47:39 10° SSW 21:53:19 63° W 21:59:07 10° N
ARGOS 3.0 21:51:35 41° SSE 21:53:27 74° ENE 21:58:49 10° N
Cosmos 1862 3.1 21:52:33 10° N 21:56:36 89° E 21:56:57 74° SSE
Cosmos 1452 Rocket 3.4 21:55:08 33° S 21:57:30 70° ESE 22:02:44 10° NNE
Cosmos 1943 Rocket 4.0 21:54:20 10° NNE 21:57:34 15° NE 21:58:32 15° ENE
SL-16 R/B 2.9 21:59:11 10° SW 22:04:42 54° WNW 22:10:16 10° NNE
Helios 1B rocket 4.3 22:03:27 10° NNE 22:04:56 19° NE 22:04:56 19° NE
Cosmos 1140 Rocket 3.3 22:02:31 10° NNW 22:07:42 76° ENE 22:08:24 64° SE
Gblst 52 Del rocket 4.0 22:08:15 10° SW 22:13:52 86° SE 22:19:24 10° NE
Resurs 01 Rocket 4.3 22:14:04 10° SW 22:16:46 16° W 22:19:27 10° NW
Cosmos 2344 3.5 22:12:21 10° SSW 22:20:00 87° WNW 22:28:15 10° NNE
Cosmos 1000 Rocket 4.4 22:16:41 10° N 22:22:56 83° E 22:24:15 59° SSE
Cosmos 1741 Rocket 4.5 22:21:18 10° N 22:26:10 48° ENE 22:26:10 48° ENE
Cosmos 1954 Rocket 4.0 22:22:16 10° NNW 22:27:27 70° WSW 22:27:53 66° SW
Cosmos 1821 Rocket 3.9 22:26:23 48° S 22:28:19 89° W 22:34:39 10° N
Cosmos 1603 3.5 22:31:54 81° SE 22:32:03 82° ESE 22:37:41 10° NNE
Cosmos 1943 4.3 22:34:58 30° NE 22:34:58 30° NE 22:38:04 10° NE
Helios 1A 3.7 22:37:13 51° NNW 22:37:13 51° NNW 22:40:25 10° NNW
Terra 3.0 22:40:06 33° NE 22:40:06 33° NE 22:43:17 10° N
Cosmos 2369 Rocket 2.8 22:35:31 10° N 22:40:37 45° NE 22:40:37 45° NE
USA 267 3.6 22:41:32 10° NE 22:46:12 47° ENE 22:46:12 47° ENE
Cosmos 2123 Rocket 3.9 22:42:31 10° N 22:48:49 77° E 22:48:49 77° E
ERS-1 Rocket 3.7 22:49:53 45° WSW 22:50:02 45° W 22:54:51 10° NNW
ATLAS 5 CENTAUR R/B 2.8 22:53:06 10° NNW 22:58:49 52° NE 22:58:49 52° NE
Meteor 2-17 Rocket 4.4 23:02:06 80° WNW 23:02:06 80° WNW 23:08:12 10° N
Cosmos 1733 Rocket 4.4 22:57:44 10° NNW 23:00:32 37° NNW 23:00:32 37° NNW
Meteor 1-14 Rocket 4.4 22:57:13 10° N 23:02:01 67° NNW 23:02:01 67° NNW
GEOS 3 Rocket 4.0 23:02:53 10° NNE 23:08:06 61° NW 23:08:06 61° NW
CZ-2C R/B 4.3 23:14:32 32° NNE 23:14:32 32° NNE 23:17:18 10° N
SPOT 5 4.3 23:14:46 32° WNW 23:14:46 32° WNW 23:17:38 10° NNW
Lacrosse 5 3.0 23:11:19 10° NW 23:14:47 41° NNW 23:14:47 41° NNW
Cosmos 1605 Rocket 4.1 23:19:14 72° NW 23:19:14 72° NW 23:25:20 10° N
H-2A R/B 4.0 23:23:56 19° W 23:24:05 19° W 23:27:33 10° NW
ATLAS 2A CENTAUR R/B 4.3 23:10:23 10° WSW 23:22:31 37° SSW 23:22:31 37° SSW
CZ-4C R/B 4.1 23:31:06 10° W 23:35:34 27° NW 23:40:36 10° NNE
Cosmos 1943 Rocket 3.2 23:36:25 10° NNW 23:40:03 43° NNW 23:40:03 43° NNW
BREEZE-M DEB (TANK) 4.1 23:25:36 10° NW 23:44:19 71° WSW 23:44:19 71° WSW
